COSMOS 1876

导读

COSMOS 1876是苏联解体后独立国家联合体(CIS)继承航天事业背景下,于1987年9月7日发射的宇宙(COSMOS)系列卫星。宇宙系列是苏/俄规模最大的多用途卫星家族,多数承担军事与航天技术验证任务,这颗卫星延续了该系列传统,为独联体时期航天应用积累了空间技术经验,推动了近地轨道探索与航天体系的延续发展。

Basic Information
目录编号:
18335
目录名称:
COSMOS 1876
国际标识:
1987-074B
轨道中心:
EARTH
卫星名称:
COSMOS 1876
卫星全名:
--
卫星状态:
在轨 (已飞行14163 天)
发射日期:
1987-09-07 UTC
国别 :
俄罗斯(独联体) (CIS)
星等 :
--
Orbit Information
数据来源 国际轨道数据 AOE轨道数据
星历时间 2026-06-17T13:07:45+0800
7小时前
查看轨道信息
2026-06-12T16:00:00+0800
5天前
查看轨道信息
半长轴 7789.478km 7789.478km
偏心率 0.0006138 0.0006066
轨道倾角 82.574° 82.574°
近地点辐角 116.198° 124.127°
升交点赤经 322.831° 325.951°
平近点角 57.081° 193.301°
近地点 1406.559km 1406.615km
远地点 1416.123km 1416.067km
周期 114.031分钟 114.031分钟
每日圈数 12.628166 12.628165
Detailed Information
使用方式:
暂无
2D Orbit Map
3D Orbit Map
Orbit Altitude Analysis Chart
Orbit Inclination Analysis Chart
Orbit Comprehensive Analysis Chart
View Comprehensive Chart